Location: Hylvaty SDH
(49.9612°N, 16.4057°E)
Time: 11:38:15
(UTC+01:00)

A-11 Canister half - Pass Details

Date: 05 October 2020
Orbit: 1526 x 1683 km, 47.3° (Epoch: 28 October)

Event Time Altitude Azimuth Distance (km) Brightness Sun altitude
Rises 20:26:45 0° 204° (SSW) 4,675 11.6 -20.5°
Reaches altitude 10° 20:30:14 10° 194° (SSW) 3,687 11.0 -21.0°
Maximum altitude 20:37:55 30° 137° (SE) 2,451 9.6 -22.2°
Enters shadow 20:38:12 30° 134° (SE) 2,453 9.5 -22.2°
Drops below altitude 10° 20:45:38 10° 81° (E) 3,717 - -23.3°
Sets 20:49:09 0° 72° (ENE) 4,718 - -23.9°
